QPF
0.00 0.00 0.00 0.00 0.00 0.00 0.00 0.00 0.00 0.00 0.00 0.00 0.00 0.00 0.00 0.00 0.00 0.00 0.00 0.00 0.00 0.00 0.00 0.00 0.00 0.00 0.00 0.00 0.00 0.00 0.00 0.00 0.00 0.00 0.00 0.01 0.00 0.01
0.00 0.00 0.00 0.00 0.00 0.00 0.00 0.00 0.00 0.00 0.00 0.00 0.00 0.00 0.00 0.00 0.00 0.00 0.00 0.00 0.00 0.00 0.00 0.00 0.00 0.00 0.00 0.00 0.00 0.00 0.00 0.00 0.05 0.07 0.03 0.02 0.01 0.01
0.00 0.00 0.00 0.00 0.00 0.00 0.00 0.00 0.00 0.00 0.00 0.00 0.00 0.00 0.00 0.00 0.00 0.00 0.00 0.00 0.00 0.00 0.00 0.00 0.00 0.00 0.00 0.00 0.00 0.00 0.00 0.00 0.01 0.06 0.03 0.04 0.01 0.00
0.00 0.00 0.00 0.00 0.00 0.00 0.00 0.00 0.00 0.00 0.00 0.00 0.00 0.00 0.00 0.00 0.00 0.00 0.00 0.00 0.00 0.00 0.00 0.00 0.00 0.00 0.00 0.00 0.00 0.00 0.00 0.00 0.00 0.01 0.01 0.01 0.00 0.00
0.00 0.00 0.00 0.00 0.00 0.00 0.00 0.00 0.00 0.00 0.00 0.00 0.00 0.00 0.00 0.00 0.00 0.00 0.00 0.00 0.00 0.00 0.00 0.00 0.00 0.00 0.00 0.00 0.00 0.00 0.00 0.00 0.00 0.00 0.00 0.00 0.00 0.00
0.00 0.00 0.00 0.00 0.00 0.00 0.00 0.00 0.00 0.00 0.00 0.00 0.00 0.00 0.00 0.00 0.00 0.00 0.00 0.00 0.00 0.00 0.00 0.00 0.00 0.00 0.00 0.00 0.00 0.00 0.00 0.00 0.00 0.00 0.00 0.00 0.00 0.00
0.00 0.00 0.00 0.00 0.00 0.00 0.00 0.00 0.00 0.00 0.00 0.00 0.00 0.00 0.00 0.00 0.00 0.00 0.00 0.00 0.00 0.00 0.00 0.00 0.00 0.00 0.00 0.00 0.00 0.00 0.00 0.00 0.00 0.00 0.00 0.00 0.00 0.00
0.00 0.00 0.00 0.00 0.00 0.00 0.00 0.00 0.00 0.00 0.00 0.00 0.00 0.00 0.00 0.00 0.00 0.00 0.00 0.00 0.00 0.00 0.00 0.00 0.00 0.00 0.00 0.00 0.00 0.00 0.00 0.00 0.00 0.00 0.00 0.00 0.00 0.00
0.00 0.00 0.00 0.00 0.00 0.00 0.00 0.00 0.00 0.00 0.00 0.00 0.00 0.00 0.00 0.00 0.00 0.00 0.00 0.00 0.00 0.00 0.00 0.00 0.00 0.00 0.00 0.00 0.00 0.00 0.00 0.00 0.00 0.00 0.00 0.00 0.00 0.00
0.00 0.00 0.00 0.00 0.00 0.00 0.00 0.00 0.00 0.00 0.00 0.00 0.00 0.00 0.00 0.00 0.00 0.00 0.00 0.00 0.00 0.00 0.00 0.00 0.00 0.00 0.00 0.00 0.00 0.00 0.00 0.00 0.00 0.00 0.00 0.00 0.00 0.00
0.00 0.00 0.00 0.00 0.00 0.00 0.00 0.00 0.00 0.00 0.00 0.00 0.00 0.00 0.00 0.00 0.00 0.00 0.00 0.00 0.00 0.00 0.00 0.00 0.00 0.00 0.00 0.00 0.00 0.00 0.00 0.00 0.00 0.00 0.00 0.00 0.00 0.00
0.00 0.00 0.00 0.00 0.00 0.00 0.00 0.00 0.00 0.00 0.00 0.00 0.00 0.00 0.00 0.00 0.00 0.00 0.00 0.00 0.00 0.00 0.00 0.00 0.00 0.00 0.00 0.00 0.00 0.00 0.00 0.00 0.00 0.00 0.00 0.00 0.00 0.00
0.00 0.00 0.00 0.00 0.00 0.00 0.00 0.00 0.00 0.00 0.00 0.00 0.00 0.00 0.00 0.00 0.00 0.00 0.00 0.00 0.00 0.00 0.00 0.00 0.00 0.00 0.00 0.00 0.00 0.00 0.00 0.00 0.00 0.00 0.00 0.00 0.00 0.00
0.00 0.00 0.00 0.00 0.00 0.00 0.00 0.00 0.00 0.00 0.00 0.00 0.00 0.00 0.00 0.00 0.00 0.00 0.00 0.00 0.00 0.00 0.00 0.00 0.00 0.00 0.00 0.00 0.00 0.00 0.00 0.00 0.00 0.00 0.00 0.00 0.00 0.00
0.00 0.00 0.00 0.00 0.00 0.00 0.00 0.00 0.00 0.00 0.00 0.00 0.00 0.00 0.00 0.00 0.00 0.00 0.00 0.00 0.00 0.00 0.00 0.00 0.00 0.00 0.00 0.00 0.00 0.00 0.00 0.00 0.00 0.00 0.00 0.00 0.00 0.00
0.00 0.00 0.00 0.00 0.00 0.00 0.00 0.00 0.00 0.00 0.00 0.00 0.00 0.00 0.00 0.00 0.00 0.00 0.00 0.00 0.00 0.00 0.00 0.00 0.00 0.00 0.00 0.00 0.00 0.00 0.00 0.00 0.00 0.00 0.00 0.00 0.00 0.00
0.00 0.00 0.00 0.00 0.00 0.00 0.00 0.00 0.00 0.00 0.00 0.00 0.00 0.00 0.00 0.00 0.00 0.00 0.00 0.00 0.00 0.00 0.00 0.00 0.00 0.00 0.00 0.00 0.00 0.00 0.00 0.00 0.00 0.00 0.00 0.00 0.00 0.00
0.00 0.00 0.00 0.00 0.00 0.00 0.00 0.00 0.00 0.00 0.00 0.00 0.00 0.00 0.00 0.00 0.00 0.00 0.00 0.00 0.00 0.00 0.00 0.00 0.00 0.00 0.00 0.00 0.00 0.00 0.00 0.00 0.00 0.00 0.00 0.00 0.00 0.00
0.00 0.00 0.00 0.00 0.00 0.00 0.00 0.00 0.00 0.00 0.00 0.00 0.00 0.00 0.00 0.00 0.00 0.00 0.00 0.00 0.00 0.00 0.00 0.00 0.00 0.00 0.00 0.00 0.00 0.00 0.00 0.00 0.00 0.00 0.00 0.00 0.00 0.00
0.00 0.00 0.00 0.00 0.00 0.00 0.00 0.00 0.00 0.00 0.00 0.00 0.00 0.00 0.00 0.00 0.00 0.00 0.00 0.00 0.00 0.00 0.00 0.00 0.00 0.00 0.00 0.00 0.00 0.00 0.00 0.00 0.00 0.00 0.00 0.00 0.00 0.00
0.00 0.00 0.00 0.00 0.00 0.00 0.00 0.00 0.00 0.00 0.00 0.00 0.00 0.00 0.00 0.00 0.00 0.00 0.00 0.00 0.00 0.00 0.00 0.00 0.00 0.00 0.00 0.00 0.00 0.00 0.00 0.00 0.00 0.00 0.00 0.00 0.00 0.00
0.00 0.00 0.00 0.00 0.00 0.00 0.00 0.00 0.00 0.00 0.00 0.00 0.00 0.00 0.00 0.00 0.00 0.00 0.00 0.00 0.00 0.00 0.00 0.00 0.00 0.00 0.00 0.00 0.00 0.00 0.00 0.00 0.00 0.00 0.00 0.00 0.00 0.00
0.00 0.00 0.00 0.00 0.00 0.00 0.00 0.00 0.00 0.00 0.00 0.00 0.00 0.00 0.00 0.00 0.00 0.00 0.00 0.00 0.00 0.00 0.00 0.00 0.00 0.00 0.00 0.00 0.00 0.00 0.00 0.00 0.00 0.00 0.00 0.00 0.00 0.00
MSLP
1020.20 1020.59 1021.19 1021.61 1021.99 1022.60 1022.59 1022.97 1023.31 1023.57 1023.58 1023.52 1023.51 1023.78 1024.04 1024.08 1023.90 1023.90 1023.98 1023.94 1024.09 1024.15 1024.06 1023.88 1023.92 1024.10 1024.25 1023.96 1023.60 1023.35 1023.00 1022.32 1020.84 1019.83 1020.28 1021.44 1022.43 1022.93
1020.36 1020.97 1021.32 1021.81 1022.11 1022.51 1022.55 1022.73 1023.15 1023.54 1023.87 1023.68 1024.06 1024.22 1024.20 1024.30 1024.32 1024.28 1024.26 1024.15 1024.20 1024.45 1024.43 1024.46 1024.40 1024.41 1024.16 1024.35 1024.10 1023.50 1022.95 1022.37 1020.91 1019.70 1020.30 1021.63 1022.41 1023.08
1020.65 1021.18 1021.53 1021.82 1022.29 1022.38 1022.59 1022.88 1023.23 1023.67 1024.19 1024.14 1024.20 1024.27 1024.54 1024.80 1024.76 1024.75 1024.80 1024.67 1024.44 1024.37 1024.47 1024.62 1024.69 1024.63 1024.55 1024.31 1024.06 1023.80 1023.42 1023.13 1022.52 1021.30 1021.32 1022.02 1022.76 1023.44
1020.97 1021.26 1021.69 1022.02 1022.25 1022.49 1022.63 1022.88 1023.21 1023.82 1024.41 1024.36 1024.31 1024.21 1024.42 1024.42 1024.50 1024.66 1024.82 1024.81 1024.60 1024.28 1024.43 1024.25 1024.47 1024.39 1024.65 1024.76 1024.59 1024.03 1023.82 1023.57 1023.57 1023.09 1022.79 1023.22 1023.89 1024.51
1021.18 1021.51 1021.64 1021.87 1022.31 1022.63 1022.79 1022.89 1023.28 1023.79 1024.12 1024.28 1024.51 1024.72 1024.61 1024.45 1024.45 1024.27 1024.25 1024.26 1024.35 1024.14 1024.27 1024.04 1024.16 1024.42 1024.67 1024.74 1024.91 1024.59 1024.32 1023.97 1023.93 1023.95 1023.76 1023.73 1024.36 1024.67
1020.83 1021.28 1021.62 1021.96 1022.08 1022.25 1022.70 1023.17 1023.63 1023.93 1024.14 1024.05 1024.51 1024.88 1024.85 1024.83 1024.65 1024.89 1024.91 1024.62 1024.82 1024.46 1023.80 1024.01 1024.29 1024.59 1024.83 1024.88 1025.06 1025.02 1024.76 1024.61 1024.45 1024.39 1024.46 1024.58 1024.75 1025.00
1021.31 1021.75 1022.12 1022.46 1022.34 1022.56 1023.05 1023.46 1023.54 1023.71 1023.95 1024.41 1024.93 1025.04 1025.05 1024.96 1024.63 1024.77 1024.92 1024.94 1024.88 1024.82 1024.74 1024.40 1024.65 1024.86 1024.83 1025.09 1025.37 1025.16 1024.98 1024.97 1025.11 1025.02 1025.01 1025.11 1025.13 1025.22
1021.62 1021.82 1022.22 1022.72 1022.91 1022.99 1023.28 1023.26 1023.45 1023.46 1024.04 1024.45 1024.63 1025.10 1025.21 1025.08 1024.81 1024.53 1024.80 1024.99 1024.89 1024.61 1024.87 1024.73 1024.88 1025.09 1024.96 1025.21 1025.29 1025.19 1025.21 1025.21 1025.33 1025.54 1025.35 1025.47 1025.34 1025.35
1021.37 1021.74 1022.14 1022.51 1022.64 1022.95 1022.84 1022.99 1023.20 1023.43 1023.92 1024.12 1025.10 1025.22 1024.81 1024.55 1024.92 1024.69 1024.94 1025.45 1024.91 1025.20 1024.91 1024.96 1024.75 1024.88 1024.95 1025.11 1025.21 1025.13 1025.19 1025.39 1025.36 1025.57 1025.68 1025.63 1025.70 1025.72
1021.49 1021.92 1022.11 1022.47 1022.70 1022.81 1023.13 1023.23 1023.52 1023.56 1023.68 1024.24 1024.87 1025.29 1024.85 1024.35 1023.95 1023.85 1024.37 1025.10 1025.12 1024.98 1025.12 1025.05 1024.95 1024.63 1024.71 1025.01 1025.11 1025.03 1025.08 1025.21 1025.44 1025.51 1025.68 1025.67 1025.84 1025.99
1021.61 1021.72 1022.09 1022.35 1022.84 1022.83 1023.04 1023.52 1023.34 1023.51 1023.54 1024.07 1024.36 1024.66 1024.64 1024.28 1023.69 1023.79 1023.92 1024.53 1024.60 1024.78 1024.95 1024.77 1025.15 1024.85 1024.69 1024.93 1025.00 1024.95 1024.98 1025.12 1025.34 1025.54 1025.62 1025.77 1025.93 1026.16
1021.53 1021.91 1021.79 1022.08 1022.45 1022.63 1022.85 1023.17 1023.60 1023.56 1023.95 1024.14 1024.42 1024.30 1024.15 1024.40 1024.54 1024.25 1024.46 1024.24 1024.47 1024.75 1024.12 1025.21 1025.02 1024.98 1025.03 1024.91 1024.99 1025.01 1025.08 1025.14 1025.41 1025.51 1025.52 1025.69 1025.89 1026.26
1021.36 1021.89 1022.13 1022.44 1022.42 1022.41 1022.76 1022.82 1023.14 1023.36 1023.66 1023.86 1023.84 1023.88 1024.17 1024.18 1024.13 1024.71 1024.37 1024.07 1024.25 1024.00 1024.02 1024.21 1025.01 1025.05 1024.86 1025.22 1025.32 1025.08 1025.11 1025.33 1025.67 1025.57 1025.46 1025.54 1025.60 1026.10
1021.24 1021.60 1022.00 1022.15 1022.63 1022.39 1022.81 1022.93 1022.87 1023.00 1023.52 1023.65 1023.62 1023.45 1024.22 1024.08 1024.50 1024.46 1024.39 1024.17 1024.31 1024.05 1024.19 1024.33 1024.89 1024.91 1024.91 1025.59 1025.58 1025.31 1025.46 1025.43 1025.63 1025.67 1025.62 1025.41 1025.29 1025.61
1020.86 1021.18 1021.56 1022.20 1022.37 1022.61 1022.63 1022.24 1022.38 1023.00 1023.23 1023.44 1023.43 1023.13 1023.56 1023.91 1024.59 1024.10 1024.75 1024.36 1024.09 1024.36 1024.12 1024.38 1024.75 1024.82 1024.93 1025.17 1025.40 1025.64 1025.68 1025.66 1025.59 1025.70 1025.68 1025.35 1025.41 1025.52
1020.52 1021.00 1021.15 1021.55 1022.23 1022.08 1021.74 1021.87 1022.49 1022.90 1022.95 1023.27 1023.43 1023.03 1023.08 1024.31 1024.64 1024.16 1024.01 1024.02 1024.30 1024.64 1024.42 1024.56 1024.78 1024.82 1025.16 1025.09 1025.18 1025.38 1025.29 1025.73 1025.51 1025.60 1025.77 1025.62 1025.51 1025.62
1020.12 1020.65 1021.00 1021.31 1021.89 1022.06 1021.73 1022.11 1022.10 1022.04 1022.37 1022.63 1022.90 1023.07 1023.75 1023.97 1023.81 1023.40 1023.99 1024.36 1024.80 1024.61 1024.68 1024.78 1024.59 1024.76 1024.80 1024.85 1024.93 1024.89 1025.08 1025.25 1025.22 1025.35 1025.61 1025.69 1025.75 1025.62
1019.78 1020.13 1020.54 1020.83 1021.14 1021.62 1021.86 1021.82 1021.84 1021.65 1021.93 1021.89 1022.57 1023.35 1024.01 1023.51 1023.64 1023.49 1023.79 1024.94 1024.89 1024.65 1024.67 1024.46 1024.83 1024.84 1024.67 1024.05 1023.93 1024.34 1024.63 1024.83 1024.88 1025.06 1025.15 1025.47 1025.42 1025.24
1019.20 1019.37 1019.90 1019.97 1020.13 1020.88 1021.21 1021.41 1021.43 1021.07 1021.35 1021.63 1022.07 1022.83 1023.08 1023.10 1023.03 1023.31 1023.86 1024.26 1024.46 1024.54 1024.56 1024.34 1024.80 1024.68 1024.67 1024.27 1023.52 1023.49 1024.04 1024.20 1024.50 1024.77 1024.88 1024.92 1024.68 1024.50
1018.55 1018.64 1018.96 1019.15 1019.59 1019.82 1020.41 1020.79 1021.00 1020.90 1020.91 1021.27 1021.62 1021.87 1022.55 1022.87 1022.72 1022.98 1023.36 1023.59 1023.87 1024.29 1024.48 1024.26 1024.33 1023.98 1024.04 1023.89 1023.67 1023.54 1023.41 1023.79 1023.98 1024.29 1024.46 1024.54 1024.28 1024.16
1017.92 1018.01 1018.39 1018.52 1019.14 1019.57 1019.73 1019.82 1020.05 1020.35 1020.52 1020.59 1020.96 1021.55 1021.98 1022.09 1022.05 1022.14 1022.50 1022.92 1023.28 1023.70 1024.03 1023.81 1023.21 1022.93 1023.50 1023.67 1023.86 1023.60 1023.26 1023.08 1023.36 1023.63 1023.78 1024.13 1024.21 1024.05
1017.52 1017.67 1017.89 1018.07 1018.50 1018.65 1018.77 1019.24 1019.55 1019.97 1019.96 1019.88 1020.10 1020.82 1021.09 1021.16 1021.20 1021.44 1021.86 1022.21 1022.57 1022.80 1022.94 1022.76 1022.91 1023.06 1023.28 1023.35 1023.36 1023.24 1023.11 1022.92 1022.85 1023.04 1023.21 1023.17 1023.27 1023.22
1017.25 1017.26 1017.43 1017.67 1017.89 1018.03 1018.34 1018.72 1018.99 1019.19 1019.15 1019.29 1019.70 1019.96 1020.10 1020.21 1020.33 1020.64 1021.12 1021.46 1021.81 1022.07 1022.30 1022.45 1022.44 1022.53 1022.65 1022.79 1022.92 1022.86 1022.83 1022.77 1022.68 1022.74 1022.72 1022.66 1022.65 1022.62
Thickness
5629 5629 5625 5623 5619 5614 5616 5612 5609 5605 5601 5601 5600 5594 5588 5585 5583 5580 5574 5570 5565 5559 5556 5554 5550 5544 5537 5536 5534 5532 5533 5537 5547 5555 5551 5540 5533 5529
5621 5618 5617 5614 5612 5608 5608 5607 5604 5600 5593 5592 5587 5583 5579 5575 5572 5569 5565 5562 5558 5549 5546 5541 5537 5532 5529 5522 5521 5523 5525 5528 5537 5546 5541 5529 5524 5520
5613 5610 5607 5605 5601 5601 5599 5597 5594 5590 5584 5578 5576 5573 5568 5561 5558 5555 5551 5549 5547 5543 5537 5532 5525 5520 5516 5515 5514 5514 5514 5513 5516 5525 5523 5518 5512 5508
5602 5601 5597 5595 5594 5591 5591 5588 5586 5579 5572 5571 5568 5566 5561 5559 5555 5549 5545 5540 5538 5536 5528 5526 5518 5514 5508 5503 5502 5504 5502 5501 5500 5503 5504 5502 5496 5492
5591 5590 5590 5588 5586 5581 5580 5580 5574 5568 5565 5563 5560 5553 5551 5551 5548 5548 5544 5540 5534 5530 5522 5518 5511 5505 5500 5495 5491 5491 5491 5490 5489 5489 5490 5490 5485 5485
5585 5583 5581 5578 5577 5576 5571 5565 5559 5557 5554 5555 5548 5543 5540 5537 5537 5532 5529 5528 5521 5518 5519 5510 5500 5494 5488 5485 5480 5479 5479 5477 5476 5476 5475 5474 5472 5474
5570 5568 5567 5564 5564 5561 5555 5551 5551 5548 5546 5541 5534 5530 5527 5525 5527 5523 5518 5515 5510 5506 5501 5500 5490 5486 5479 5474 5470 5469 5468 5466 5462 5461 5461 5461 5462 5463
5557 5556 5554 5549 5547 5545 5542 5543 5540 5538 5532 5528 5523 5518 5515 5514 5513 5513 5507 5503 5502 5498 5489 5486 5482 5475 5472 5465 5461 5460 5457 5455 5451 5448 5450 5450 5451 5453
5548 5545 5542 5539 5538 5535 5535 5532 5529 5526 5520 5518 5509 5507 5508 5508 5500 5500 5493 5485 5488 5481 5478 5474 5472 5467 5463 5457 5454 5452 5449 5445 5444 5442 5441 5441 5441 5442
5535 5532 5531 5527 5526 5524 5520 5518 5515 5513 5511 5504 5497 5491 5495 5498 5499 5497 5489 5478 5474 5471 5465 5463 5460 5458 5455 5450 5447 5445 5443 5439 5436 5435 5433 5433 5432 5433
5521 5521 5517 5514 5510 5510 5508 5502 5503 5502 5498 5493 5487 5482 5480 5481 5485 5484 5480 5472 5469 5461 5456 5452 5447 5447 5446 5443 5440 5437 5435 5432 5428 5426 5426 5425 5426 5425
5510 5506 5506 5503 5500 5499 5496 5493 5489 5489 5483 5480 5477 5475 5475 5471 5465 5467 5462 5462 5458 5451 5449 5440 5438 5436 5436 5435 5432 5431 5428 5423 5420 5419 5419 5420 5420 5420
5498 5492 5489 5487 5487 5487 5484 5482 5479 5477 5473 5470 5469 5467 5465 5460 5460 5452 5452 5452 5446 5446 5439 5433 5427 5426 5429 5424 5421 5423 5422 5418 5414 5413 5414 5415 5415 5415
5484 5480 5476 5476 5472 5475 5472 5468 5468 5467 5462 5460 5459 5460 5452 5449 5444 5443 5440 5441 5436 5435 5428 5424 5418 5419 5419 5408 5413 5415 5413 5411 5408 5408 5409 5410 5411 5411
5472 5469 5467 5462 5461 5459 5457 5461 5457 5452 5449 5447 5447 5449 5445 5442 5432 5433 5428 5427 5429 5424 5420 5415 5409 5410 5410 5407 5404 5403 5402 5403 5404 5404 5404 5406 5407 5407
5461 5458 5455 5453 5448 5449 5452 5448 5442 5438 5438 5434 5435 5436 5437 5425 5417 5424 5421 5419 5415 5412 5410 5405 5402 5402 5398 5399 5398 5395 5396 5395 5398 5399 5398 5399 5400 5400
5448 5445 5443 5441 5437 5436 5437 5432 5432 5432 5430 5426 5424 5423 5418 5414 5415 5418 5411 5408 5403 5398 5400 5396 5396 5394 5394 5394 5391 5392 5392 5390 5393 5393 5390 5389 5392 5394
5434 5433 5432 5430 5428 5426 5421 5422 5422 5423 5419 5421 5413 5407 5403 5407 5406 5405 5403 5391 5388 5389 5388 5391 5386 5384 5385 5390 5391 5388 5386 5386 5387 5387 5386 5384 5386 5389
5424 5423 5421 5423 5422 5416 5413 5411 5412 5416 5411 5409 5406 5398 5396 5396 5401 5398 5393 5388 5382 5381 5380 5380 5377 5375 5374 5376 5385 5384 5381 5380 5380 5380 5379 5380 5382 5385
5413 5413 5412 5413 5411 5411 5407 5403 5401 5402 5401 5399 5396 5392 5386 5386 5389 5389 5385 5378 5377 5371 5371 5372 5371 5373 5372 5374 5375 5375 5375 5374 5374 5374 5373 5373 5376 5378
5403 5403 5402 5403 5400 5397 5396 5396 5394 5392 5390 5391 5387 5382 5379 5380 5382 5379 5377 5378 5374 5366 5365 5368 5372 5371 5369 5366 5364 5367 5370 5370 5369 5368 5368 5366 5366 5370
5389 5389 5389 5390 5388 5388 5388 5385 5383 5379 5381 5382 5382 5376 5375 5375 5375 5372 5370 5368 5366 5364 5366 5365 5366 5364 5360 5360 5360 5359 5361 5363 5363 5362 5361 5362 5362 5363
5372 5374 5376 5376 5376 5376 5375 5373 5371 5370 5372 5373 5370 5369 5369 5370 5369 5367 5364 5362 5359 5357 5358 5356 5357 5356 5357 5355 5352 5352 5354 5355 5356 5355 5356 5356 5357 5358